Wind_Speed
21 22 22 22 23 23 23 23 23 22 21 20 19 18 18 18 17 16 15 15 15 15 16 15 14 14 15 15 15 15 14 14 13 13 13 13 12 12 12 12 12 12 11 11 11 12 14 15 15 14 15 16 17 17 16 15 15 16 16 17 16 17 17 15 15 16 14 13 13 13 13 14 14 14 15 16 17 19 21 20 20 20 19 19 16
23 23 24 24 24 23 23 23 23 23 23 22 20 19 18 18 17 17 16 16 16 16 17 15 15 15 15 16 15 15 15 14 14 13 13 12 12 12 12 12 13 12 11 11 10 11 12 13 13 13 14 15 16 16 16 16 16 16 17 17 17 16 15 14 13 15 15 13 12 13 13 14 15 16 16 17 17 18 19 19 20 20 19 18 17
23 22 23 24 24 24 23 24 24 24 24 24 22 21 20 19 18 18 18 16 16 17 17 16 15 15 15 16 16 15 15 14 15 14 14 13 12 12 11 12 12 12 11 11 10 11 12 13 13 12 13 14 15 15 15 15 15 16 16 17 17 15 14 13 14 15 16 15 14 14 14 14 15 16 16 16 17 17 18 18 19 20 19 18 17
24 22 20 21 22 23 24 23 24 25 25 25 24 23 22 21 20 19 18 17 16 17 17 17 16 15 15 16 15 15 14 15 15 16 15 14 13 12 12 12 12 12 12 11 11 11 12 13 12 11 12 13 14 14 14 13 14 14 15 16 17 16 15 15 15 16 17 18 17 16 16 16 17 16 16 16 17 17 18 18 19 20 19 17 17
26 24 22 21 21 21 22 23 23 25 26 25 25 24 23 22 22 20 20 19 17 17 17 18 17 17 16 16 16 15 15 14 15 16 16 16 15 14 13 13 13 13 12 12 12 12 13 13 12 11 12 14 14 13 12 12 12 13 14 15 16 17 17 17 18 18 19 20 20 19 18 18 19 17 17 17 18 18 18 18 18 19 19 18 17
27 25 23 22 21 21 21 22 22 23 25 26 25 23 22 22 22 22 21 20 18 17 17 18 19 19 18 17 16 16 15 15 15 15 16 17 17 16 14 14 13 13 13 13 14 14 14 14 13 12 13 14 14 13 13 13 13 14 14 14 14 16 18 19 20 21 21 21 22 21 20 20 20 18 17 18 20 20 18 18 18 18 17 18 18
26 25 24 22 22 23 22 22 21 21 22 23 23 21 20 20 20 21 22 21 19 18 18 19 20 20 20 19 18 16 15 15 15 15 15 16 18 18 16 15 14 14 14 14 14 15 15 15 14 14 14 14 14 14 14 14 15 15 15 15 14 15 16 17 19 20 21 21 22 22 22 21 21 20 18 19 21 20 19 19 19 17 16 17 18
26 25 24 23 23 24 24 23 22 22 22 21 20 19 18 17 18 20 22 22 21 20 20 19 20 20 21 21 20 18 17 16 15 15 15 16 17 18 17 16 16 16 16 16 16 16 16 15 15 14 14 14 14 14 14 14 15 15 14 13 13 13 13 14 15 17 19 21 22 22 23 23 22 21 19 19 20 19 18 19 19 18 17 17 17
28 25 23 24 24 25 25 25 24 24 24 23 22 20 19 18 18 20 22 23 24 23 22 21 21 21 22 22 22 21 20 19 17 16 16 16 17 17 17 17 17 17 17 17 17 17 17 17 16 16 15 15 15 15 15 15 15 14 12 10 11 12 13 14 15 16 17 19 20 20 22 22 21 19 19 18 18 19 18 18 19 18 18 19 18
26 24 23 23 24 24 25 26 25 24 25 25 25 24 22 20 21 21 22 23 24 24 25 24 24 23 23 24 23 23 22 21 19 18 17 17 17 18 17 17 17 17 17 18 18 18 18 18 17 17 16 16 16 16 15 15 15 15 13 12 13 14 16 17 18 19 20 21 21 21 22 23 20 19 19 18 17 18 18 19 20 20 20 22 20
19 19 20 20 20 20 21 23 23 23 24 25 24 23 22 22 23 23 23 23 23 23 24 25 26 26 26 26 26 25 25 23 21 19 19 19 20 20 20 19 18 17 17 18 18 18 19 19 19 19 18 17 16 16 15 15 14 14 14 14 15 18 20 21 22 23 24 25 25 25 26 27 24 22 22 21 19 20 21 21 23 24 25 27 26
13 13 14 15 16 16 17 19 20 19 21 22 21 21 21 21 22 24 25 25 24 24 23 24 26 27 28 28 28 29 28 27 25 23 22 21 22 23 23 23 22 21 19 18 18 17 18 19 19 20 19 19 18 17 17 17 15 15 15 15 16 18 20 22 24 24 25 26 27 28 28 28 27 25 24 24 24 25 26 26 27 28 29 30 30
12 12 11 11 12 13 14 16 16 16 18 19 20 21 21 20 22 24 27 27 26 25 24 24 25 27 29 29 29 30 30 30 28 26 25 23 23 24 25 26 27 26 23 22 20 18 18 17 17 17 17 17 18 18 18 18 18 18 18 18 18 19 20 21 22 23 24 25 27 28 27 27 28 27 25 26 28 28 29 29 29 30 31 31 31
13 12 11 9 9 10 11 12 12 13 15 15 15 17 18 20 23 25 27 28 28 26 26 25 25 26 28 29 29 30 30 31 30 28 27 26 25 24 25 26 27 28 27 25 23 21 19 18 18 17 16 15 16 16 17 17 18 19 19 20 20 20 21 22 22 23 25 26 28 29 28 27 28 29 27 27 28 29 29 30 30 30 31 32 31
13 12 11 9 8 7 7 8 9 11 12 11 9 9 10 14 18 23 26 28 28 27 27 27 27 27 28 29 29 29 30 30 31 30 29 28 27 26 26 25 26 27 27 27 26 23 21 20 19 19 17 17 16 16 16 17 18 19 20 21 21 21 22 22 22 23 24 25 27 28 28 27 28 29 28 27 28 29 30 31 31 31 32 33 33
14 12 10 9 8 7 8 7 5 5 7 9 7 6 7 9 12 17 22 24 25 24 23 23 24 27 29 29 29 30 30 30 29 29 28 28 28 27 27 26 26 26 27 27 27 26 24 22 22 21 20 20 19 18 18 19 21 22 23 23 23 23 23 22 22 22 23 25 26 27 28 28 29 30 29 29 30 31 32 33 33 32 34 35 35
13 10 8 7 7 8 9 9 8 6 2 2 3 4 5 6 8 12 16 17 18 18 18 18 19 22 24 25 26 26 27 28 28 28 28 28 28 27 27 27 26 27 27 27 28 29 28 27 26 25 24 23 22 21 21 23 25 25 26 26 27 28 27 26 25 25 26 27 28 29 30 30 30 30 30 30 31 30 32 35 33 32 34 36 36
12 10 8 7 7 8 9 9 10 10 9 8 6 4 3 3 2 5 9 13 14 13 13 15 16 17 19 20 20 20 21 24 25 26 27 28 28 28 28 28 27 27 27 28 28 29 30 30 29 28 27 26 25 24 24 26 28 28 29 30 31 32 32 30 29 30 30 30 31 31 31 31 31 32 32 32 31 30 32 34 32 31 33 36 36
12 10 8 7 6 6 7 8 9 11 11 10 9 8 7 7 6 3 1 5 8 8 9 11 13 13 13 15 16 16 17 19 21 23 24 25 26 27 27 27 27 27 27 27 28 29 29 30 30 29 29 29 29 28 28 29 31 31 31 32 34 35 34 32 33 34 34 35 35 35 35 35 35 35 35 34 34 33 33 33 31 30 33 35 35
11 10 8 6 5 5 5 6 7 8 8 7 8 8 8 7 7 6 4 2 2 3 3 6 9 10 10 11 12 13 14 15 17 19 20 21 22 24 25 26 27 27 27 27 28 29 29 30 30 29 29 30 30 30 30 31 32 33 33 34 36 36 35 34 35 36 36 37 37 38 38 38 37 37 36 36 35 34 34 34 33 32 33 36 36
10 9 8 6 5 4 5 5 5 6 6 5 5 5 6 5 5 5 4 3 3 3 2 1 3 6 7 7 7 9 11 12 14 16 17 18 19 20 22 24 25 27 27 28 29 29 30 31 31 30 31 31 31 32 32 32 32 33 33 34 35 35 35 35 35 35 35 36 36 37 37 37 37 38 37 37 36 34 34 34 34 33 33 34 35
7 8 8 7 5 4 4 4 3 3 4 3 2 2 2 2 2 3 2 1 2 2 2 2 1 1 2 3 4 5 7 9 11 13 15 15 17 18 19 20 22 24 25 26 27 29 30 30 31 31 32 32 32 32 32 32 31 31 31 32 32 32 33 34 35 35 35 35 35 35 35 35 35 36 35 35 35 34 34 35 35 34 33 32 32
4 5 7 7 5 4 4 3 2 1 1 2 2 1 2 2 1 0 1 1 1 2 2 2 2 1 1 1 2 2 3 6 8 10 12 13 14 15 16 18 20 22 23 24 25 27 28 29 29 30 31 31 32 32 32 32 31 30 30 30 30 31 32 33 34 34 35 34 34 34 34 33 33 33 33 33 33 33 33 34 34 35 35 35 34
5 4 5 5 5 4 3 3 2 1 1 2 2 2 2 3 3 3 2 3 3 3 3 2 2 2 2 2 2 3 3 4 5 6 8 10 11 12 13 15 18 20 22 23 23 24 26 26 26 26 27 28 30 30 31 31 31 30 30 30 31 31 31 31 32 32 34 34 35 35 34 33 33 33 33 32 33 33 34 34 35 35 36 37 37
7 6 6 5 4 3 3 3 2 3 3 4 4 4 5 6 6 7 7 7 6 5 5 4 3 3 2 2 2 3 3 3 5 5 6 7 8 9 10 12 13 16 18 20 21 22 23 24 25 25 26 26 28 29 30 30 29 30 30 30 31 31 31 31 31 31 33 34 34 35 35 35 34 34 32 30 30 31 32 34 36 36 36 36 37
9 8 8 7 6 5 4 3 4 5 5 6 6 7 8 9 10 10 10 9 8 7 7 6 5 4 3 2 2 3 4 4 5 6 7 7 8 9 10 11 12 12 13 15 17 18 20 22 24 25 26 27 28 29 29 29 28 28 29 29 30 31 30 31 31 32 33 34 35 36 36 36 35 34 29 26 26 26 26 29 32 33 33 32 33
9 9 9 8 7 7 7 6 5 5 6 6 6 7 8 9 10 11 11 10 9 9 9 9 8 7 6 5 3 3 5 6 6 7 8 9 10 11 11 12 13 13 13 13 14 15 16 17 19 21 23 24 25 26 27 27 26 27 26 27 27 28 28 29 30 31 33 33 34 34 34 33 33 32 28 26 25 23 21 23 26 27 27 27 30
6 5 6 6 6 7 8 8 7 6 7 7 7 7 8 8 10 12 11 11 10 10 11 11 11 10 10 9 7 5 6 7 8 9 10 11 12 13 14 14 14 15 16 17 16 16 16 16 16 17 18 19 21 22 24 24 25 25 25 24 25 26 26 26 27 28 29 30 30 31 31 30 30 30 28 28 28 25 22 22 23 24 23 24 28
4 3 4 4 5 5 6 6 6 7 7 8 9 9 9 9 10 11 10 9 10 11 12 13 13 11 11 10 10 8 7 9 10 11 12 13 14 15 16 17 17 17 18 19 20 19 19 18 18 17 17 17 17 18 19 21 22 24 24 24 23 24 25 25 25 26 26 26 27 28 28 29 29 29 29 30 30 29 27 26 26 25 24 24 28
4 5 5 5 5 5 5 5 6 6 7 8 9 9 9 10 10 10 8 7 8 10 13 14 13 12 10 9 9 10 9 10 11 13 14 14 14 15 17 18 19 19 19 19 20 21 21 20 19 18 17 16 16 16 17 17 19 21 22 22 22 22 22 22 22 22 23 24 25 26 27 28 30 30 30 31 31 31 31 30 30 29 28 28 29
5 6 6 6 6 6 7 7 8 8 9 9 10 11 10 10 10 10 9 8 8 10 12 13 12 12 10 8 7 8 9 10 12 13 15 15 15 16 16 18 19 20 20 20 21 21 22 21 20 19 17 16 16 15 15 15 16 17 19 20 20 19 19 19 19 19 20 21 22 24 25 27 29 30 31 32 32 32 32 32 33 33 33 32 32
7 7 7 7 8 8 9 9 10 10 11 11 12 13 13 12 12 11 10 10 10 12 14 13 11 11 11 10 9 10 10 11 12 13 14 15 16 17 18 19 20 21 22 22 21 21 21 21 21 20 19 19 18 17 16 14 14 15 17 17 17 17 17 17 18 19 19 20 21 23 24 25 27 28 29 29 30 32 33 33 34 34 35 34 33
8 8 9 9 9 9 9 10 10 11 12 13 13 14 14 15 16 15 14 13 13 14 15 14 12 10 10 11 11 11 12 12 13 13 14 15 16 18 19 20 22 23 23 24 23 22 21 21 22 22 22 22 22 21 20 17 15 15 15 16 16 16 17 17 18 20 20 21 22 23 24 25 27 28 28 28 28 30 32 33 33 34 34 34 34
11 11 11 10 11 11 11 11 12 12 13 14 15 15 16 17 18 18 19 19 18 17 16 15 13 11 10 11 12 13 13 14 15 15 17 18 19 20 21 23 24 25 25 25 24 24 24 23 23 23 24 24 24 24 23 22 20 18 18 18 18 18 18 18 19 20 20 20 20 20 22 25 26 27 28 28 28 29 30 31 32 32 32 33 35
13 13 12 11 12 13 13 13 14 14 15 15 16 17 18 18 19 20 21 21 21 20 19 18 16 14 13 13 14 14 15 16 17 17 18 20 21 23 24 25 26 26 26 26 26 26 26 26 25 25 25 26 25 25 25 25 23 22 21 21 21 22 21 21 20 21 21 21 22 22 22 23 23 23 23 23 25 27 29 30 31 31 32 33 33
12 13 14 14 14 15 15 15 16 17 17 17 18 19 19 20 20 21 21 20 20 19 19 18 18 16 15 15 15 16 16 17 18 19 19 21 22 22 23 23 24 25 25 26 26 26 26 27 27 27 27 26 26 26 26 26 26 25 24 24 24 24 25 25 24 25 25 26 26 27 27 27 26 25 23 23 24 25 28 30 31 31 31 32 32
11 13 16 17 17 17 17 18 18 18 18 19 20 20 21 21 21 20 19 18 18 18 18 18 18 18 18 17 17 18 18 18 18 19 20 21 22 22 21 21 22 24 25 25 26 26 26 26 27 28 28 27 27 27 27 27 27 27 27 26 26 26 26 27 27 28 29 29 29 29 29 31 32 30 28 29 29 28 28 29 30 32 32 31 31
9 12 14 16 18 18 19 19 19 19 20 20 20 20 20 19 19 18 17 17 16 17 17 18 19 19 20 20 20 20 21 21 20 20 20 20 22 23 23 23 24 25 26 27 27 27 27 26 26 27 28 28 28 28 27 27 28 28 29 29 29 28 27 27 27 28 30 30 31 30 30 32 34 33 32 31 32 32 31 29 29 30 31 30 30
9 10 12 14 16 17 18 19 19 19 19 19 18 18 18 18 18 18 17 17 17 17 17 18 19 19 20 21 21 22 22 21 21 20 19 20 20 21 22 24 25 27 28 29 30 30 29 28 27 27 28 29 30 30 29 29 28 29 29 30 31 31 31 30 30 29 29 30 31 32 32 32 34 36 35 33 34 35 35 34 33 33 33 32 29
8 9 11 12 14 15 16 16 17 18 19 18 18 18 17 17 17 17 17 17 17 17 17 18 18 19 20 20 21 22 21 20 19 19 19 19 20 21 22 24 26 28 29 30 31 31 31 30 29 29 29 30 31 31 31 31 30 30 30 30 31 32 32 32 32 32 32 31 31 32 32 32 33 35 35 35 36 37 37 37 38 38 39 38 36
9 9 10 11 12 13 14 15 15 16 17 17 17 17 16 16 16 16 17 17 17 18 18 19 19 19 19 19 19 20 19 19 19 20 20 20 21 23 24 25 26 28 30 31 31 31 31 31 31 32 32 31 31 32 33 33 33 32 31 31 31 32 32 33 34 34 34 35 34 34 33 32 32 33 33 33 35 37 38 37 37 37 38 40 40
9 10 10 11 12 12 12 13 14 15 15 15 15 15 15 15 16 17 18 19 19 20 21 21 20 20 19 18 18 19 19 18 19 20 22 23 24 25 26 27 28 29 29 29 30 30 30 31 32 33 33 33 33 33 33 33 34 34 34 33 32 32 32 32 33 34 35 36 36 36 36 35 33 33 33 32 32 34 36 37 37 37 37 38 39
10 11 11 12 12 12 12 13 13 14 14 14 14 14 15 16 18 20 21 21 22 22 22 22 21 21 20 20 20 19 19 18 19 20 22 23 25 26 27 28 28 28 27 26 26 27 29 30 31 32 33 33 33 32 32 33 33 34 34 34 33 33 32 32 33 34 35 36 36 37 37 37 36 35 34 33 33 33 33 34 35 36 37 37 38
12 13 13 13 13 13 13 13 13 13 13 13 13 15 17 19 20 22 22 22 22 22 22 22 22 22 22 22 21 20 20 19 20 21 23 24 24 25 26 27 27 27 27 27 26 27 28 29 31 32 32 32 32 31 31 31 32 32 33 33 33 32 32 32 32 33 34 35 36 37 37 37 38 37 36 35 34 34 34 33 33 33 34 35 37
14 14 15 15 15 15 14 13 12 12 13 14 15 17 18 19 21 21 22 22 22 22 23 23 23 23 22 23 22 22 22 22 21 22 22 23 24 24 25 26 26 27 27 28 28 28 29 30 31 32 32 31 31 30 30 29 29 30 30 31 31 31 31 31 31 32 32 33 34 36 36 37 37 38 38 37 36 36 36 35 34 34 34 34 34
14 15 15 15 15 14 13 12 11 12 13 15 17 17 18 19 20 21 22 23 24 24 24 23 23 23 23 22 23 24 24 24 24 24 24 24 24 25 26 26 26 26 27 28 29 30 30 30 31 31 32 32 31 30 28 28 28 28 28 28 28 29 29 29 30 30 30 31 32 34 35 36 37 37 37 37 37 37 37 37 36 36 35 35 35
14 15 15 15 14 13 12 12 12 13 14 15 17 18 20 21 22 23 24 25 26 26 25 24 24 25 24 23 23 24 25 26 26 27 27 27 26 26 27 27 27 27 27 29 29 30 30 30 30 31 31 31 30 29 28 27 27 26 26 26 27 27 28 28 29 29 29 30 31 32 33 35 36 36 37 37 37 37 37 37 37 37 36 36 36
13 14 14 14 13 13 13 14 14 15 16 17 18 19 21 22 23 24 25 25 26 26 26 26 27 27 27 26 26 25 26 27 27 27 27 26 26 26 27 28 28 29 29 30 30 30 29 29 30 30 30 30 29 29 29 28 27 26 26 26 26 26 27 27 28 29 30 30 31 31 32 34 35 35 36 37 37 37 37 38 38 38 38 37 37
12 12 12 12 13 13 14 15 16 16 17 18 19 20 21 21 22 23 23 24 24 25 25 25 26 27 27 27 26 25 25 25 25 25 26 27 28 28 29 30 30 31 32 32 31 30 29 28 29 29 28 29 29 28 29 29 29 29 28 27 26 26 26 27 27 28 29 30 31 31 32 33 34 35 36 36 36 36 37 38 38 38 37 36 36
10 11 11 12 12 13 13 14 15 16 17 18 19 20 20 20 20 21 21 22 23 23 23 23 24 24 24 24 24 23 23 24 25 26 28 29 30 30 31 32 32 33 33 33 31 29 28 28 29 29 29 29 29 29 29 29 30 30 30 29 28 27 27 27 27 27 28 29 30 30 30 32 33 34 34 35 35 36 36 37 37 36 36 36 36
9 10 10 11 12 12 13 14 15 15 16 17 18 19 20 20 20 20 20 22 23 24 23 23 23 23 22 23 24 24 25 26 28 29 31 31 32 31 31 31 32 32 33 33 31 29 27 27 28 29 30 30 30 30 30 30 30 30 30 29 28 28 27 27 27 27 27 28 29 30 30 31 32 33 34 34 34 34 34 34 34 34 35 35 35
Wind_Direction
217 218 216 215 215 215 218 220 221 222 224 225 226 225 226 227 228 228 228 227 224 221 221 223 223 225 228 230 230 228 225 225 229 234 237 239 240 243 245 245 246 245 241 241 241 242 244 245 244 241 242 244 243 245 250 253 258 263 269 274 277 281 284 284 287 287 279 277 282 279 276 276 275 277 282 285 289 294 299 303 307 311 318 325 325
220 221 221 219 216 217 219 222 223 224 225 227 229 229 229 231 232 233 232 232 231 229 227 225 223 225 229 233 236 235 232 231 231 233 235 236 236 238 241 244 247 248 246 243 240 240 245 248 248 244 243 245 245 246 248 251 255 259 263 267 269 271 273 271 275 282 277 271 275 278 276 277 278 280 285 288 290 292 294 298 302 305 312 319 317
220 222 225 226 224 221 220 221 224 226 228 229 231 232 232 232 234 236 236 235 235 235 234 233 231 233 234 235 235 236 238 238 237 238 237 235 235 234 236 241 245 248 248 246 242 242 245 249 252 251 249 251 252 252 253 253 255 259 261 263 263 261 261 264 268 276 280 276 273 274 276 277 280 285 289 291 293 295 296 297 299 301 307 311 310
221 222 224 226 228 227 225 223 223 224 227 229 231 232 234 235 236 238 239 240 240 241 241 239 238 240 240 238 236 237 240 242 242 242 240 238 237 234 235 239 243 247 249 248 247 245 245 248 252 254 254 256 259 259 260 261 262 265 265 266 265 260 255 258 264 271 278 280 279 278 280 282 284 288 291 292 294 297 299 298 296 298 303 305 304
222 223 224 224 226 227 227 226 225 226 227 228 230 232 234 236 237 239 240 240 240 243 244 244 242 242 243 243 244 244 245 247 247 244 242 242 240 237 236 238 242 246 249 250 251 250 249 250 251 253 255 257 261 263 264 267 269 270 272 273 272 268 262 259 262 266 271 276 281 283 285 287 289 292 295 297 298 299 299 297 296 299 303 303 301
228 226 226 227 229 231 230 228 228 228 228 227 228 231 233 235 237 238 238 237 238 240 243 246 247 248 248 249 252 253 252 252 252 250 248 247 245 241 238 239 244 247 249 249 251 252 255 258 256 254 255 259 265 269 271 273 273 273 275 278 278 274 270 266 265 266 268 272 278 284 289 292 294 296 300 303 304 304 303 299 297 300 303 303 302
237 234 229 227 230 234 235 232 230 231 232 230 226 225 228 232 236 236 234 233 235 238 241 245 248 251 252 252 254 258 259 258 258 259 259 255 250 245 241 243 248 253 256 256 256 256 259 262 262 259 258 262 267 272 275 277 277 277 276 278 278 275 274 273 270 270 271 274 279 286 292 296 298 301 304 305 305 307 309 307 303 303 307 306 305
238 237 230 227 232 236 237 237 235 234 236 234 228 225 225 231 240 242 239 236 236 238 241 245 249 251 251 252 253 257 261 263 264 266 268 266 261 255 250 249 251 255 260 262 262 263 263 263 264 263 263 266 269 272 275 275 276 275 273 274 275 275 277 278 276 275 277 278 282 286 290 294 297 301 303 304 304 307 311 310 308 311 313 309 308
233 231 226 226 233 237 237 238 238 237 236 233 231 229 228 230 236 242 242 242 242 243 245 247 250 251 252 252 254 255 257 260 263 266 270 271 270 268 266 263 262 262 263 264 264 265 266 267 268 269 270 271 274 274 275 275 273 269 265 265 272 277 282 285 285 285 285 285 288 291 292 294 297 300 301 302 305 308 310 311 311 314 315 310 310
226 225 224 226 230 232 233 234 235 234 233 232 229 227 226 228 231 235 237 239 241 244 247 250 251 252 254 255 256 255 256 256 257 260 265 269 272 274 274 273 272 271 271 271 270 268 268 270 271 273 274 275 276 276 275 275 272 267 265 268 274 280 284 287 288 290 291 291 294 297 298 298 301 303 303 305 308 310 313 315 315 315 316 314 310
214 218 221 223 225 227 229 232 232 228 228 232 232 229 228 231 237 240 240 238 238 239 244 249 251 252 255 257 257 257 257 257 258 258 259 263 267 271 274 276 277 277 278 279 279 277 276 275 275 276 277 277 277 278 277 275 271 268 268 272 278 284 288 290 291 292 292 292 294 295 296 298 301 303 304 306 311 313 315 317 317 318 320 318 314
201 209 215 218 220 223 225 229 229 226 226 229 232 233 233 234 240 247 248 244 241 240 242 247 251 252 253 255 256 257 258 259 261 262 261 261 264 267 270 273 275 276 278 281 284 285 283 281 280 279 279 279 280 281 280 278 275 271 268 269 273 278 284 289 292 294 295 295 295 294 293 294 296 298 300 304 308 311 312 313 316 318 319 318 314
185 193 202 210 215 218 222 226 228 230 230 229 229 232 234 234 239 248 253 250 244 241 242 244 249 252 253 253 254 254 256 257 259 260 260 260 262 265 267 269 272 274 276 277 280 284 284 284 282 279 279 280 281 282 283 282 281 278 275 272 271 271 274 279 284 289 293 295 296 294 292 293 295 295 298 303 305 306 307 309 312 313 312 312 310
172 176 181 188 194 199 206 214 221 227 230 231 232 234 236 236 238 244 250 250 244 240 241 242 244 248 250 250 251 252 253 255 257 258 258 259 260 261 262 263 266 268 271 273 275 277 279 280 279 278 277 277 279 281 283 284 285 284 282 280 278 276 274 274 275 279 283 287 290 290 291 293 294 295 298 301 302 302 303 305 306 306 307 307 306
161 161 159 155 158 164 169 183 202 213 215 213 211 214 222 231 236 238 242 244 241 238 240 242 244 248 249 248 247 248 250 252 254 257 259 260 260 260 261 261 261 262 264 267 269 270 271 273 273 273 273 273 274 277 280 284 286 287 286 285 284 281 278 276 275 276 278 281 284 288 291 294 296 298 300 302 301 302 303 302 302 302 303 302 303
139 143 142 131 123 125 129 132 150 188 211 213 205 194 200 217 227 229 232 237 238 237 241 246 249 251 251 248 245 246 247 248 251 254 257 259 260 261 261 261 261 261 260 262 264 266 266 267 267 268 269 269 269 272 276 281 284 284 284 284 284 283 281 279 280 280 281 283 286 289 292 294 295 296 298 299 299 301 301 299 299 301 301 300 300
119 126 132 123 109 110 117 115 107 101 114 225 235 235 231 235 237 233 231 232 233 234 239 243 247 249 251 250 247 247 247 248 249 250 252 254 256 258 259 260 260 260 259 259 262 264 265 266 267 267 267 266 267 269 273 277 279 280 280 281 281 280 280 281 283 283 283 285 287 288 290 291 292 292 293 293 293 296 296 294 296 299 298 296 297
109 113 119 119 108 105 112 116 113 105 97 94 102 128 143 141 182 235 238 235 233 236 238 237 239 246 253 255 254 251 251 251 252 252 253 253 253 254 256 257 258 257 257 257 259 261 263 265 266 267 267 267 267 269 271 274 275 276 276 278 278 278 278 281 285 286 286 287 287 288 288 289 290 291 290 289 289 289 289 290 294 296 293 292 295
117 122 127 129 122 117 117 116 115 112 106 103 105 113 118 112 100 91 242 240 236 242 250 247 242 245 252 257 257 256 255 256 256 256 256 256 255 254 254 255 255 256 256 257 257 259 261 263 264 267 268 270 271 271 272 273 273 273 274 275 275 276 278 281 284 285 286 287 287 288 288 289 290 290 289 288 288 287 287 287 289 290 289 291 294
124 129 137 139 136 135 130 121 117 113 108 107 110 112 112 111 106 99 93 104 176 209 243 254 251 251 257 260 259 260 261 261 262 261 260 260 259 258 257 257 257 257 258 259 259 259 259 260 261 263 264 266 267 268 268 269 270 271 272 272 273 277 280 281 282 283 284 285 286 287 288 289 290 290 290 290 290 290 288 288 287 286 286 288 290
131 133 137 140 141 142 135 124 120 113 98 95 110 117 111 107 106 104 96 85 85 98 106 151 247 249 255 262 265 268 269 269 268 268 268 267 266 265 264 263 263 263 264 263 263 264 263 263 263 263 264 265 265 266 266 266 267 268 269 271 273 276 278 279 280 281 283 284 285 286 287 288 289 290 291 293 293 292 292 291 289 287 285 285 287
147 146 143 141 144 149 145 134 127 115 94 82 93 105 92 85 100 109 113 101 67 61 66 72 84 215 250 269 280 282 282 280 277 275 276 276 276 274 272 270 269 269 269 270 270 271 271 271 271 270 269 269 269 269 269 268 267 268 269 271 272 273 275 276 278 280 281 283 284 285 285 286 287 289 291 292 293 293 293 291 290 288 286 283 283
185 171 158 151 151 161 169 167 163 143 62 26 12 18 20 18 32 114 184 208 326 358 10 24 32 29 7 332 320 317 306 293 285 281 280 280 281 280 278 276 274 273 274 275 276 276 276 276 277 277 277 277 275 274 273 273 272 273 273 273 273 273 274 276 278 280 281 283 284 284 284 285 287 288 290 292 293 293 292 290 288 285 284 283 281
221 219 200 176 163 170 191 198 207 245 295 328 326 325 339 351 346 334 331 337 338 344 357 9 12 10 15 13 360 350 341 321 304 295 289 285 285 286 284 281 278 277 277 278 279 280 279 278 279 280 281 282 281 280 279 278 277 276 275 275 276 277 278 279 280 282 283 284 285 286 287 288 290 292 294 297 298 296 294 291 287 283 281 281 280
233 239 242 232 212 206 216 225 249 280 294 295 293 303 325 335 336 335 339 344 346 348 350 349 352 352 347 341 332 329 330 322 312 311 308 303 300 300 299 298 294 288 286 285 285 285 284 282 280 279 280 282 284 284 284 283 282 280 278 277 277 278 280 281 283 284 285 285 287 288 290 292 294 295 299 302 302 300 298 295 291 285 281 279 278
232 233 240 246 255 267 266 259 268 281 290 295 296 304 317 325 328 331 334 338 345 351 350 343 338 336 325 305 298 309 314 306 300 304 308 306 305 304 305 308 311 308 303 299 295 291 290 289 287 284 284 285 286 286 287 286 285 283 281 280 280 280 281 282 283 284 285 286 288 289 292 294 295 295 297 299 302 306 309 307 300 292 285 280 278
233 231 232 236 248 267 276 281 286 286 290 298 305 314 322 327 329 329 330 333 338 345 348 344 338 334 324 308 293 302 312 303 291 290 296 300 303 304 304 306 310 310 310 309 307 303 301 300 299 295 292 292 292 292 291 290 288 286 283 281 280 281 282 283 283 284 285 287 288 290 292 294 294 293 291 292 298 307 315 315 311 305 297 289 283
232 228 227 228 232 246 261 275 290 301 308 312 315 321 332 342 347 345 341 338 339 344 348 347 345 341 333 321 309 303 307 306 299 295 298 301 304 305 305 305 307 309 311 312 314 314 313 312 311 308 305 303 301 298 297 296 294 291 288 285 282 281 281 282 283 284 286 288 289 291 292 293 293 291 288 288 293 300 307 307 309 311 309 301 291
222 205 191 196 207 221 236 257 278 293 304 312 317 324 333 345 353 353 347 342 344 350 352 349 345 342 337 329 322 312 302 304 310 313 313 310 309 310 310 310 310 312 314 314 315 317 317 317 317 317 317 315 311 307 305 304 303 301 298 294 289 286 285 285 285 285 286 287 287 288 289 290 290 289 289 289 292 298 303 303 303 306 306 302 296
222 214 204 198 201 211 224 241 263 281 290 299 307 316 326 335 339 342 339 333 336 344 349 347 339 332 330 330 328 324 316 307 305 308 309 308 308 311 313 314 314 314 314 315 315 316 318 319 319 319 319 319 317 316 317 316 314 310 307 304 300 296 294 294 294 294 293 291 290 290 290 290 290 291 292 293 295 298 302 303 302 301 298 295 292
248 241 237 233 233 239 249 258 270 282 292 300 305 308 312 316 318 320 320 315 311 320 332 336 329 321 318 315 309 310 311 305 299 298 299 300 302 304 307 310 313 314 314 315 316 317 319 320 320 317 315 313 312 313 315 317 318 316 313 310 309 306 304 303 303 302 300 297 295 294 293 293 293 293 294 295 296 297 299 299 299 298 296 293 289
269 261 253 251 254 258 263 269 275 282 291 299 304 307 306 303 299 298 301 305 306 311 320 323 318 311 310 306 295 289 289 291 293 293 293 293 296 301 304 307 310 312 313 315 316 317 318 319 319 318 314 310 306 305 306 307 309 313 313 311 310 309 307 305 304 302 301 299 296 295 294 294 293 293 293 293 294 294 295 296 297 297 296 294 290
265 263 255 252 256 260 265 272 277 283 290 295 299 302 303 301 300 298 300 305 309 312 315 316 311 304 301 299 297 295 291 290 291 291 291 292 296 300 304 307 310 312 313 314 316 317 316 315 316 316 316 315 311 309 306 303 299 299 301 301 301 302 302 301 301 301 300 298 297 296 296 296 296 294 293 292 292 294 296 297 298 298 298 297 295
258 261 261 261 263 265 268 273 277 281 285 288 291 295 297 299 301 303 305 308 310 311 312 312 309 303 295 291 292 295 296 294 292 292 293 295 297 298 300 302 304 306 309 313 317 318 318 317 315 314 314 316 316 315 313 310 303 296 291 288 288 291 293 293 295 297 297 298 300 300 300 300 300 298 295 295 295 295 296 298 298 297 296 296 296
258 261 266 268 269 270 272 273 275 277 279 281 285 289 293 296 300 303 306 309 310 311 311 311 309 306 301 296 295 296 298 300 299 298 296 296 296 297 298 300 302 303 306 311 316 320 322 322 320 318 316 315 316 316 316 314 311 306 300 294 289 288 286 285 286 288 290 293 297 299 300 304 307 306 302 300 299 298 298 300 299 296 292 291 293
260 262 263 263 263 266 270 272 274 277 279 281 283 285 289 294 298 300 304 306 307 307 307 306 305 305 303 302 301 301 302 304 305 306 306 305 305 306 307 309 311 310 310 311 314 318 321 323 323 322 320 317 316 315 315 314 313 312 309 306 300 296 291 288 286 285 284 286 289 292 294 297 303 306 307 305 302 300 299 299 296 292 289 288 290
260 261 264 265 265 266 268 271 275 279 282 284 285 286 288 292 295 298 302 303 304 305 305 304 304 304 303 303 306 306 307 309 309 310 312 313 315 317 319 319 319 318 317 316 316 317 320 321 322 323 322 320 317 315 313 312 311 310 309 308 306 303 299 295 292 290 288 288 289 290 290 291 293 297 300 301 301 300 300 299 297 294 290 289 292
267 264 265 267 269 269 270 272 276 281 284 286 289 291 292 294 296 298 300 301 302 304 306 307 310 312 311 311 312 311 310 310 310 309 312 315 319 322 324 325 323 322 323 323 322 321 321 322 322 322 322 321 319 316 313 311 308 306 306 305 304 303 302 299 296 294 292 292 292 291 289 288 289 290 292 293 293 294 295 296 299 298 294 290 292
283 277 274 274 275 276 278 281 283 286 287 289 292 294 295 297 298 298 299 300 302 303 305 308 312 315 316 317 318 316 316 316 316 316 318 320 321 322 323 324 323 322 323 324 325 325 325 324 322 322 322 321 320 318 316 313 310 307 304 303 303 302 302 300 299 297 294 293 292 290 289 287 287 287 288 288 287 286 286 287 290 294 295 292 291
295 288 283 282 283 284 285 287 287 288 289 290 292 294 296 299 300 299 298 300 302 303 306 309 311 313 316 319 320 320 321 324 326 327 327 324 320 317 317 318 320 320 321 322 323 324 325 325 324 323 322 321 320 318 317 315 313 310 307 305 303 302 302 302 301 300 298 296 292 290 290 289 287 286 286 286 284 284 284 284 284 286 288 289 290
314 306 300 295 292 290 290 289 288 287 289 290 291 293 297 302 303 301 300 301 303 304 306 307 309 310 312 315 316 317 319 322 323 322 322 322 319 316 315 315 315 316 316 318 319 320 321 322 323 323 323 322 321 319 317 315 314 313 311 309 306 303 302 302 302 302 302 299 296 294 294 294 292 290 288 286 284 284 285 286 284 281 280 280 282
322 319 315 312 308 304 300 296 293 292 292 291 291 293 296 300 301 300 300 301 303 305 306 307 307 308 308 309 310 311 314 316 314 311 311 312 313 314 315 315 315 315 315 316 317 317 317 318 319 321 322 322 321 320 318 317 315 314 313 312 310 307 304 303 303 303 303 302 300 299 298 297 296 295 293 291 288 286 287 289 289 287 284 281 281
328 325 324 322 320 317 314 309 304 299 295 293 293 293 293 294 295 296 298 300 302 305 307 308 309 309 308 307 309 310 311 312 311 310 309 309 310 312 314 315 316 316 316 315 315 314 314 316 317 318 319 320 321 321 320 319 317 316 315 314 313 311 309 306 305 304 304 303 303 302 301 300 299 298 296 296 295 292 289 288 288 289 289 288 287
331 329 328 327 323 320 318 314 308 302 297 295 292 290 289 291 293 296 299 302 305 307 308 308 309 310 311 311 312 311 310 309 310 310 309 308 310 312 314 313 314 314 314 314 315 314 313 313 314 315 316 318 319 320 321 320 319 318 318 317 315 313 312 311 309 307 306 306 305 304 303 303 302 302 301 301 300 298 295 292 290 288 287 287 288
328 327 327 326 323 320 318 312 306 301 298 296 295 294 296 298 299 300 303 304 305 306 307 308 309 310 311 312 312 310 309 308 308 309 309 309 310 312 312 310 310 311 312 313 315 315 314 313 313 313 314 316 317 318 319 318 318 318 318 317 316 315 313 312 311 310 310 310 308 307 305 305 305 305 306 306 305 304 301 299 297 295 292 290 289
328 328 329 327 324 320 315 309 301 295 295 296 299 301 302 302 303 305 306 306 306 307 309 310 310 310 310 311 309 308 308 307 306 304 305 306 307 308 309 308 309 310 310 311 311 311 313 314 314 314 314 315 315 315 315 315 315 315 314 314 314 313 312 311 310 310 310 311 309 308 307 306 306 307 308 309 308 307 305 303 302 300 298 295 294
329 330 330 330 326 321 315 309 303 298 295 295 297 298 298 298 300 302 303 304 305 308 309 310 309 310 311 311 309 308 309 308 307 305 305 305 305 305 306 308 310 310 309 308 308 310 312 314 314 313 312 312 312 312 312 312 310 308 309 310 311 312 311 311 309 309 309 308 307 307 307 307 307 308 309 310 310 309 308 305 303 301 300 298 296
331 333 333 332 329 325 320 315 310 306 303 300 299 298 299 300 301 302 303 304 306 308 308 307 306 306 307 307 307 308 309 309 309 309 308 308 308 307 307 308 309 309 308 308 308 309 310 312 312 311 310 309 309 309 310 309 307 305 305 306 307 308 309 308 308 308 307 306 305 305 305 306 306 307 308 309 309 309 308 306 304 303 302 301 300
333 336 337 335 333 329 325 319 315 310 307 304 302 301 301 302 303 303 305 307 308 308 307 306 305 305 305 306 306 307 308 307 307 307 307 308 309 309 308 307 308 307 307 306 306 306 307 308 309 309 309 308 308 308 307 306 305 304 304 304 305 305 305 305 305 305 305 304 303 303 303 303 303 304 304 305 307 307 307 306 305 305 304 304 303
336 338 340 340 338 335 331 326 321 315 310 305 302 300 300 299 300 301 303 304 305 305 305 305 305 305 306 305 303 303 303 303 304 304 306 306 306 306 306 306 306 305 304 303 302 303 305 306 307 307 308 308 308 307 306 305 303 303 304 305 305 305 306 305 304 303 303 302 301 301 300 300 300 300 301 302 304 304 304 305 305 305 305 305 303
336 337 338 338 338 337 335 334 330 325 318 311 305 301 300 300 301 300 299 299 300 302 304 306 306 305 303 301 298 297 297 297 298 299 301 301 302 303 304 305 304 303 302 301 300 300 301 302 304 304 305 305 306 306 304 303 303 303 304 305 306 306 307 307 305 305 304 304 302 301 301 299 299 299 299 301 302 303 304 305 305 305 305 304 303
Height
1568 1569 1571 1573 1575 1576 1578 1580 1581 1583 1584 1585 1586 1587 1589 1590 1591 1592 1593 1594 1595 1595 1596 1596 1597 1598 1599 1600 1600 1601 1601 1602 1603 1604 1604 1605 1605 1606 1607 1607 1608 1608 1609 1609 1610 1610 1610 1611 1612 1612 1613 1613 1614 1614 1614 1615 1615 1615 1616 1616 1616 1616 1616 1616 1615 1614 1614 1615 1615 1615 1614 1614 1614 1613 1613 1612 1612 1611 1610 1609 1609 1608 1607 1606 1605
1566 1568 1569 1571 1573 1575 1577 1579 1580 1582 1583 1584 1585 1586 1587 1589 1590 1591 1592 1593 1594 1595 1595 1596 1597 1598 1598 1599 1600 1600 1601 1601 1602 1602 1602 1603 1604 1604 1605 1606 1606 1607 1607 1608 1608 1609 1609 1610 1610 1611 1612 1612 1612 1613 1613 1613 1614 1614 1614 1614 1615 1615 1615 1614 1614 1613 1612 1613 1613 1613 1613 1612 1612 1612 1611 1611 1610 1610 1609 1608 1608 1607 1606 1605 1604
1565 1567 1568 1570 1572 1574 1576 1577 1579 1580 1581 1583 1584 1585 1586 1588 1589 1590 1591 1593 1594 1594 1595 1595 1596 1597 1597 1598 1599 1599 1600 1600 1601 1601 1601 1602 1602 1603 1604 1604 1604 1605 1606 1606 1607 1608 1608 1608 1609 1610 1610 1611 1611 1612 1612 1612 1612 1612 1613 1613 1613 1613 1613 1613 1613 1612 1611 1611 1611 1611 1611 1610 1610 1610 1610 1609 1608 1608 1607 1607 1606 1605 1605 1604 1602
1565 1566 1567 1569 1570 1572 1574 1576 1578 1579 1580 1581 1582 1584 1585 1587 1588 1589 1590 1592 1593 1594 1594 1595 1595 1596 1596 1597 1597 1598 1599 1599 1600 1600 1601 1601 1601 1602 1602 1602 1603 1604 1604 1605 1606 1606 1607 1607 1608 1609 1609 1610 1610 1610 1611 1611 1611 1611 1611 1611 1611 1611 1612 1612 1611 1611 1610 1609 1609 1609 1609 1609 1608 1608 1608 1607 1607 1606 1605 1605 1604 1604 1603 1603 1601
1563 1564 1565 1566 1568 1570 1572 1574 1576 1577 1579 1580 1581 1582 1584 1585 1587 1588 1589 1591 1592 1593 1594 1594 1594 1595 1595 1596 1596 1597 1597 1598 1599 1599 1600 1600 1601 1601 1601 1601 1602 1602 1603 1604 1604 1605 1605 1606 1606 1607 1608 1608 1609 1609 1610 1610 1610 1610 1610 1610 1609 1610 1610 1610 1610 1609 1609 1608 1607 1607 1607 1607 1606 1606 1606 1605 1604 1604 1604 1603 1603 1602 1601 1601 1600
1563 1563 1563 1564 1566 1568 1570 1572 1574 1576 1577 1579 1580 1582 1583 1584 1586 1587 1588 1589 1590 1592 1592 1593 1594 1594 1594 1595 1595 1596 1596 1597 1597 1598 1599 1599 1600 1600 1600 1601 1601 1601 1602 1603 1603 1604 1604 1604 1605 1606 1606 1606 1607 1608 1608 1609 1609 1609 1608 1608 1608 1608 1608 1608 1608 1607 1607 1606 1606 1605 1605 1605 1605 1604 1604 1604 1602 1602 1602 1601 1601 1601 1600 1599 1598
1564 1563 1563 1563 1564 1566 1568 1571 1573 1575 1577 1578 1579 1581 1582 1583 1584 1585 1587 1588 1589 1590 1591 1592 1593 1593 1594 1594 1594 1595 1595 1596 1596 1597 1597 1598 1599 1599 1599 1600 1600 1600 1601 1601 1602 1603 1603 1603 1604 1604 1604 1605 1605 1606 1606 1607 1607 1607 1607 1607 1607 1607 1606 1606 1606 1606 1606 1605 1605 1604 1603 1603 1603 1602 1602 1602 1601 1600 1600 1599 1598 1598 1598 1597 1596
1562 1562 1562 1562 1563 1565 1567 1570 1572 1574 1576 1578 1580 1581 1581 1583 1584 1585 1586 1586 1587 1588 1589 1590 1591 1592 1592 1593 1593 1594 1594 1594 1595 1595 1596 1597 1597 1598 1598 1599 1599 1599 1600 1600 1601 1601 1602 1602 1602 1603 1603 1604 1604 1604 1605 1605 1605 1605 1605 1605 1605 1605 1605 1605 1605 1605 1604 1604 1603 1603 1602 1601 1601 1600 1600 1600 1599 1598 1598 1597 1596 1595 1595 1595 1594
1558 1560 1560 1561 1562 1564 1567 1569 1571 1573 1574 1576 1578 1579 1579 1580 1581 1582 1583 1584 1585 1586 1587 1589 1589 1590 1591 1591 1592 1593 1593 1593 1593 1594 1595 1595 1596 1596 1597 1597 1598 1598 1598 1599 1599 1600 1600 1601 1601 1601 1602 1602 1603 1603 1603 1603 1603 1603 1603 1604 1603 1603 1603 1603 1603 1603 1603 1603 1602 1602 1601 1600 1599 1599 1599 1598 1598 1597 1596 1596 1594 1594 1593 1592 1592
1556 1557 1558 1559 1560 1562 1564 1567 1569 1571 1572 1573 1574 1575 1576 1577 1579 1580 1580 1581 1582 1583 1585 1586 1587 1588 1589 1589 1590 1591 1591 1591 1592 1592 1593 1593 1594 1595 1595 1596 1596 1596 1597 1597 1597 1598 1598 1599 1599 1600 1600 1601 1601 1601 1601 1602 1602 1602 1602 1602 1602 1602 1602 1602 1602 1602 1602 1601 1601 1600 1600 1599 1598 1598 1597 1597 1597 1596 1595 1594 1593 1592 1591 1590 1589
1555 1556 1557 1558 1559 1561 1562 1564 1567 1568 1570 1571 1572 1573 1574 1575 1576 1578 1579 1580 1580 1580 1581 1583 1585 1586 1587 1587 1588 1588 1589 1590 1590 1591 1591 1592 1592 1593 1593 1594 1594 1595 1595 1595 1595 1596 1596 1597 1597 1598 1598 1599 1599 1599 1599 1600 1600 1600 1600 1601 1601 1601 1600 1600 1600 1600 1600 1599 1599 1599 1598 1597 1597 1597 1596 1596 1595 1595 1594 1593 1592 1590 1590 1588 1586
1554 1555 1557 1558 1559 1560 1562 1563 1565 1566 1568 1570 1572 1572 1572 1572 1575 1577 1579 1580 1579 1579 1579 1581 1582 1584 1585 1585 1586 1586 1587 1587 1588 1589 1589 1590 1590 1591 1591 1592 1592 1593 1593 1593 1593 1594 1594 1595 1595 1595 1596 1596 1597 1597 1597 1598 1598 1598 1599 1599 1599 1599 1598 1598 1598 1598 1597 1597 1596 1596 1596 1595 1594 1594 1594 1594 1594 1593 1592 1591 1590 1589 1588 1586 1585
1554 1555 1557 1558 1559 1560 1561 1562 1564 1565 1567 1568 1570 1570 1570 1572 1574 1576 1577 1578 1578 1578 1578 1579 1580 1582 1582 1583 1584 1584 1584 1585 1585 1586 1586 1587 1588 1588 1588 1589 1589 1590 1591 1591 1592 1592 1592 1592 1593 1593 1593 1594 1594 1595 1595 1595 1595 1596 1596 1596 1596 1596 1596 1596 1596 1595 1595 1595 1594 1593 1593 1593 1593 1592 1593 1593 1592 1591 1589 1589 1588 1587 1585 1584 1583
1554 1555 1556 1558 1559 1560 1561 1561 1563 1564 1565 1567 1568 1568 1569 1570 1571 1572 1574 1575 1575 1576 1577 1577 1578 1579 1580 1581 1581 1582 1582 1582 1582 1583 1584 1584 1585 1585 1585 1586 1586 1587 1588 1589 1589 1590 1590 1590 1590 1590 1591 1591 1592 1592 1592 1592 1592 1593 1593 1593 1593 1593 1593 1593 1593 1593 1593 1593 1592 1591 1591 1591 1591 1590 1590 1591 1590 1588 1587 1586 1585 1584 1583 1581 1580
1555 1555 1556 1558 1559 1559 1560 1561 1561 1562 1564 1565 1566 1567 1567 1568 1569 1570 1571 1572 1573 1573 1574 1575 1577 1578 1579 1579 1579 1579 1579 1580 1580 1581 1581 1582 1582 1582 1582 1583 1583 1584 1585 1586 1587 1587 1588 1588 1588 1588 1588 1589 1589 1590 1590 1590 1590 1589 1589 1589 1589 1589 1589 1589 1590 1590 1590 1590 1589 1588 1588 1589 1588 1588 1588 1588 1587 1586 1585 1584 1582 1581 1580 1578 1577
1556 1556 1556 1558 1559 1560 1560 1560 1561 1561 1563 1563 1564 1564 1565 1567 1568 1569 1570 1571 1571 1571 1571 1573 1575 1577 1578 1578 1577 1577 1577 1577 1577 1578 1578 1579 1579 1579 1579 1580 1580 1581 1582 1583 1584 1584 1585 1585 1585 1585 1586 1586 1587 1587 1588 1588 1587 1587 1586 1586 1585 1585 1585 1586 1587 1587 1587 1587 1586 1586 1586 1586 1586 1585 1585 1585 1584 1584 1583 1581 1580 1579 1577 1574 1573
1556 1557 1557 1559 1560 1561 1561 1561 1561 1561 1561 1561 1562 1563 1564 1567 1569 1569 1569 1569 1569 1570 1569 1570 1572 1576 1578 1577 1575 1573 1574 1574 1574 1574 1575 1575 1575 1576 1576 1576 1577 1577 1578 1580 1580 1581 1582 1582 1583 1583 1583 1583 1584 1584 1585 1585 1584 1584 1583 1582 1582 1581 1581 1582 1583 1583 1583 1583 1583 1583 1582 1582 1582 1582 1582 1582 1582 1581 1580 1577 1577 1577 1574 1571 1569
1557 1558 1560 1561 1562 1562 1562 1562 1561 1561 1562 1562 1564 1566 1567 1568 1568 1568 1567 1567 1567 1567 1567 1567 1569 1572 1575 1575 1572 1570 1570 1570 1571 1571 1571 1572 1572 1573 1573 1573 1573 1574 1575 1576 1577 1578 1579 1579 1580 1580 1579 1580 1580 1581 1582 1581 1580 1580 1580 1579 1578 1577 1577 1578 1579 1579 1579 1579 1578 1578 1578 1578 1578 1578 1578 1578 1578 1578 1576 1574 1574 1574 1571 1568 1566
1559 1561 1562 1563 1564 1563 1563 1563 1563 1563 1564 1565 1566 1567 1568 1567 1566 1566 1565 1565 1565 1565 1565 1565 1566 1568 1570 1571 1569 1567 1567 1567 1568 1568 1568 1569 1569 1570 1570 1570 1570 1571 1571 1572 1573 1574 1575 1576 1576 1576 1576 1576 1577 1577 1577 1577 1576 1576 1576 1575 1574 1573 1573 1575 1575 1574 1574 1574 1573 1573 1573 1573 1573 1573 1572 1573 1573 1573 1572 1571 1571 1571 1568 1565 1564
1560 1562 1563 1564 1564 1564 1564 1564 1565 1565 1565 1566 1566 1567 1567 1566 1566 1565 1564 1564 1564 1563 1563 1563 1563 1565 1568 1567 1565 1565 1565 1565 1565 1565 1566 1566 1566 1566 1567 1567 1567 1568 1568 1569 1570 1570 1571 1572 1572 1572 1572 1572 1572 1572 1572 1572 1572 1571 1571 1570 1569 1569 1569 1570 1570 1569 1569 1569 1568 1568 1568 1568 1568 1568 1567 1567 1567 1567 1567 1566 1566 1566 1564 1562 1561
1561 1562 1563 1563 1564 1564 1564 1565 1565 1565 1565 1566 1566 1566 1566 1566 1565 1565 1564 1564 1564 1563 1563 1563 1563 1565 1566 1565 1563 1563 1563 1563 1563 1563 1563 1564 1564 1563 1563 1563 1564 1564 1565 1565 1566 1566 1567 1568 1568 1569 1568 1568 1568 1568 1568 1568 1567 1567 1566 1566 1565 1565 1565 1565 1564 1564 1564 1564 1564 1564 1563 1563 1563 1563 1562 1562 1562 1562 1562 1561 1560 1560 1560 1558 1557
1561 1562 1562 1562 1563 1563 1563 1564 1564 1564 1565 1565 1565 1565 1565 1565 1564 1564 1564 1564 1563 1563 1563 1563 1564 1564 1564 1563 1561 1561 1562 1562 1562 1562 1562 1562 1562 1562 1561 1561 1561 1561 1562 1562 1562 1562 1563 1564 1564 1564 1564 1564 1564 1564 1563 1563 1563 1563 1563 1563 1562 1562 1561 1560 1560 1560 1560 1560 1559 1559 1559 1559 1559 1558 1558 1557 1557 1557 1557 1556 1556 1555 1554 1553 1553
1561 1562 1562 1562 1562 1562 1563 1563 1563 1564 1564 1564 1564 1564 1564 1564 1564 1564 1563 1563 1563 1563 1563 1563 1563 1563 1562 1562 1561 1560 1561 1560 1560 1560 1560 1560 1560 1560 1560 1559 1559 1559 1559 1559 1559 1559 1559 1560 1560 1560 1560 1560 1560 1560 1559 1559 1559 1559 1559 1559 1559 1558 1557 1557 1557 1556 1555 1555 1555 1554 1554 1555 1554 1554 1553 1553 1552 1552 1551 1551 1550 1550 1549 1548 1548
1560 1561 1561 1562 1562 1562 1562 1562 1563 1563 1563 1563 1564 1564 1563 1563 1563 1563 1563 1564 1563 1563 1563 1562 1562 1562 1561 1561 1560 1560 1560 1559 1559 1559 1559 1559 1558 1558 1558 1557 1557 1557 1556 1556 1556 1556 1556 1557 1557 1557 1557 1556 1556 1556 1555 1556 1556 1555 1555 1555 1555 1554 1554 1553 1553 1552 1551 1551 1550 1550 1550 1550 1550 1549 1549 1548 1547 1546 1546 1545 1544 1544 1543 1543 1542
1559 1560 1560 1561 1561 1561 1561 1562 1562 1562 1563 1563 1563 1563 1563 1563 1562 1562 1563 1563 1562 1562 1562 1561 1561 1561 1560 1560 1560 1560 1559 1559 1558 1558 1558 1557 1557 1556 1556 1555 1554 1554 1554 1553 1554 1554 1554 1554 1554 1554 1554 1553 1553 1552 1552 1552 1552 1552 1551 1551 1550 1550 1550 1549 1549 1548 1547 1546 1546 1546 1546 1546 1546 1545 1544 1544 1543 1541 1540 1539 1538 1537 1537 1537 1537
1559 1559 1560 1560 1560 1561 1561 1561 1562 1562 1562 1562 1562 1562 1562 1562 1561 1561 1561 1561 1561 1560 1560 1560 1560 1559 1559 1559 1559 1558 1558 1557 1557 1556 1556 1555 1555 1555 1554 1554 1553 1552 1551 1551 1551 1551 1551 1551 1551 1551 1550 1550 1550 1549 1549 1549 1549 1549 1548 1547 1546 1546 1546 1545 1545 1544 1543 1542 1542 1541 1541 1541 1541 1541 1540 1539 1538 1537 1536 1534 1532 1531 1531 1531 1531
1558 1559 1559 1560 1560 1560 1560 1560 1561 1561 1561 1561 1561 1561 1561 1561 1560 1560 1559 1559 1559 1559 1558 1558 1558 1558 1557 1557 1557 1557 1556 1555 1555 1554 1554 1554 1553 1553 1552 1552 1551 1550 1549 1549 1549 1549 1549 1549 1548 1547 1547 1547 1547 1546 1546 1545 1545 1545 1545 1544 1543 1542 1542 1541 1541 1540 1539 1538 1538 1537 1537 1537 1537 1536 1536 1535 1534 1533 1532 1530 1528 1527 1527 1527 1526
1558 1558 1559 1560 1560 1560 1560 1560 1560 1560 1561 1561 1560 1561 1561 1560 1559 1558 1558 1557 1557 1557 1557 1556 1556 1556 1555 1555 1555 1555 1554 1553 1553 1552 1552 1552 1551 1551 1550 1550 1549 1548 1547 1546 1546 1546 1546 1546 1546 1545 1544 1544 1544 1543 1543 1542 1542 1541 1541 1540 1539 1539 1538 1538 1537 1536 1536 1535 1534 1533 1533 1533 1532 1532 1532 1531 1530 1530 1529 1527 1525 1524 1524 1524 1522
1557 1557 1558 1558 1559 1559 1559 1560 1559 1559 1560 1560 1559 1559 1559 1559 1559 1558 1558 1557 1556 1556 1556 1555 1554 1554 1554 1553 1553 1553 1553 1552 1551 1551 1551 1550 1550 1549 1548 1547 1546 1545 1544 1544 1543 1543 1543 1543 1543 1542 1541 1540 1540 1540 1540 1539 1538 1537 1537 1537 1536 1535 1534 1534 1533 1533 1532 1531 1530 1529 1529 1529 1528 1528 1528 1527 1527 1527 1526 1524 1522 1521 1520 1519 1518
1556 1556 1557 1557 1557 1557 1558 1558 1558 1558 1558 1558 1558 1559 1559 1559 1558 1558 1558 1557 1557 1556 1556 1555 1554 1553 1554 1553 1553 1552 1552 1552 1551 1551 1550 1549 1549 1548 1547 1545 1544 1543 1543 1542 1541 1541 1541 1540 1539 1539 1538 1538 1537 1537 1536 1535 1534 1534 1533 1533 1533 1532 1531 1530 1530 1529 1528 1528 1527 1526 1525 1525 1524 1524 1523 1523 1522 1522 1521 1520 1519 1518 1517 1516 1514
1555 1555 1555 1556 1556 1556 1556 1557 1557 1557 1557 1557 1557 1557 1558 1558 1558 1558 1557 1557 1557 1556 1556 1555 1554 1552 1552 1553 1553 1552 1551 1551 1550 1550 1549 1548 1548 1547 1545 1544 1543 1541 1541 1540 1540 1539 1538 1538 1537 1537 1536 1535 1535 1534 1533 1532 1532 1531 1530 1530 1530 1529 1528 1527 1527 1526 1525 1524 1523 1522 1521 1521 1520 1520 1519 1518 1517 1517 1516 1516 1515 1514 1513 1512 1511
1553 1553 1554 1554 1555 1555 1555 1555 1556 1556 1556 1555 1555 1556 1556 1556 1556 1556 1556 1556 1556 1555 1554 1554 1553 1552 1551 1551 1551 1550 1550 1549 1548 1548 1547 1547 1546 1545 1544 1542 1541 1540 1539 1538 1538 1537 1537 1536 1535 1535 1534 1534 1533 1532 1531 1530 1530 1529 1528 1527 1527 1527 1526 1525 1524 1523 1522 1521 1519 1519 1518 1517 1516 1515 1515 1514 1513 1512 1512 1511 1511 1510 1509 1508 1507
1551 1551 1552 1553 1553 1554 1554 1554 1555 1555 1555 1554 1554 1554 1554 1554 1554 1554 1554 1554 1554 1554 1553 1552 1552 1551 1550 1549 1548 1548 1547 1547 1546 1545 1545 1544 1544 1543 1542 1541 1540 1539 1538 1537 1536 1535 1535 1534 1533 1532 1532 1531 1530 1530 1529 1528 1528 1527 1526 1525 1525 1524 1524 1523 1521 1520 1519 1518 1517 1516 1515 1514 1513 1512 1511 1511 1510 1509 1508 1507 1507 1507 1506 1504 1503
1549 1550 1550 1551 1552 1552 1553 1553 1554 1554 1554 1554 1553 1553 1553 1553 1552 1552 1552 1551 1552 1551 1551 1551 1550 1550 1549 1548 1547 1546 1545 1545 1544 1543 1543 1542 1542 1541 1541 1540 1539 1537 1536 1535 1534 1533 1532 1532 1531 1530 1529 1528 1527 1526 1526 1525 1525 1524 1523 1523 1522 1521 1521 1520 1519 1518 1517 1515 1514 1513 1512 1511 1510 1509 1508 1507 1507 1506 1505 1504 1504 1503 1502 1501 1499
1548 1549 1549 1550 1550 1551 1551 1551 1552 1552 1552 1552 1552 1551 1551 1551 1551 1550 1550 1549 1549 1549 1548 1548 1548 1548 1547 1546 1545 1545 1544 1543 1542 1542 1541 1540 1540 1539 1538 1537 1536 1535 1534 1533 1532 1531 1530 1529 1528 1527 1526 1525 1524 1523 1522 1521 1521 1520 1519 1519 1518 1518 1517 1516 1515 1515 1514 1513 1511 1510 1510 1509 1508 1506 1505 1504 1503 1503 1502 1501 1500 1500 1499 1498 1497
1547 1548 1548 1548 1549 1549 1549 1550 1550 1550 1550 1550 1550 1550 1550 1549 1549 1549 1548 1547 1547 1546 1546 1546 1546 1545 1545 1544 1543 1543 1542 1541 1540 1540 1539 1538 1537 1536 1535 1534 1533 1532 1532 1531 1530 1529 1528 1527 1526 1525 1524 1523 1522 1521 1519 1518 1517 1516 1515 1515 1514 1513 1512 1512 1511 1510 1510 1509 1508 1507 1507 1505 1504 1504 1502 1501 1500 1500 1499 1498 1497 1496 1495 1494 1493
1546 1546 1546 1547 1547 1547 1548 1548 1548 1548 1548 1547 1547 1548 1548 1548 1547 1546 1546 1545 1544 1544 1544 1543 1543 1542 1542 1542 1541 1540 1539 1539 1538 1537 1537 1536 1535 1534 1533 1532 1531 1530 1529 1528 1528 1527 1526 1525 1524 1522 1521 1520 1519 1518 1517 1516 1514 1513 1512 1511 1510 1509 1508 1507 1506 1506 1505 1504 1504 1503 1502 1501 1500 1500 1499 1498 1497 1496 1495 1494 1493 1492 1491 1490 1490
1545 1545 1545 1545 1546 1546 1546 1546 1546 1546 1545 1545 1545 1545 1545 1545 1545 1544 1543 1543 1542 1542 1541 1540 1540 1539 1539 1538 1538 1537 1536 1536 1536 1535 1534 1534 1533 1532 1531 1530 1529 1528 1527 1526 1525 1525 1524 1523 1521 1520 1518 1517 1516 1515 1514 1513 1512 1510 1509 1507 1506 1505 1504 1503 1502 1502 1501 1500 1499 1498 1498 1497 1496 1496 1495 1495 1493 1492 1491 1491 1490 1489 1488 1487 1486
1544 1543 1544 1544 1544 1544 1544 1544 1544 1543 1543 1543 1543 1543 1542 1542 1542 1541 1541 1540 1540 1540 1539 1538 1538 1537 1536 1536 1535 1534 1533 1533 1532 1532 1532 1531 1531 1530 1529 1528 1527 1526 1525 1524 1523 1522 1521 1520 1519 1517 1516 1514 1513 1512 1511 1509 1508 1507 1506 1504 1503 1501 1500 1499 1498 1497 1497 1496 1495 1494 1493 1493 1492 1491 1490 1490 1489 1488 1487 1487 1487 1486 1485 1484 1483
1542 1542 1542 1542 1542 1542 1542 1542 1542 1541 1541 1541 1540 1540 1540 1540 1539 1539 1538 1538 1538 1537 1537 1536 1536 1535 1535 1534 1533 1532 1531 1531 1530 1530 1530 1529 1529 1528 1527 1527 1526 1525 1523 1522 1521 1519 1518 1517 1516 1515 1513 1512 1510 1509 1507 1506 1505 1504 1503 1501 1500 1498 1497 1496 1494 1493 1492 1491 1490 1489 1488 1488 1487 1486 1486 1485 1484 1483 1482 1482 1482 1482 1481 1480 1479
1541 1541 1541 1541 1541 1541 1540 1540 1540 1539 1539 1539 1538 1538 1538 1537 1537 1536 1536 1536 1535 1535 1535 1534 1534 1533 1533 1532 1531 1530 1530 1529 1528 1528 1527 1527 1526 1526 1525 1524 1524 1523 1521 1520 1518 1517 1516 1514 1513 1512 1510 1509 1508 1506 1504 1503 1502 1500 1499 1498 1496 1495 1494 1492 1491 1489 1488 1486 1485 1485 1484 1483 1482 1481 1480 1480 1479 1477 1476 1476 1476 1476 1475 1475 1474
1540 1540 1540 1540 1539 1539 1539 1539 1538 1538 1537 1537 1536 1536 1536 1535 1534 1534 1534 1533 1533 1533 1532 1532 1532 1531 1531 1530 1529 1529 1528 1527 1527 1526 1525 1524 1524 1523 1522 1521 1521 1520 1519 1517 1516 1514 1513 1512 1510 1509 1508 1506 1505 1503 1502 1500 1499 1497 1495 1494 1492 1491 1490 1488 1487 1486 1484 1482 1481 1480 1479 1478 1478 1477 1476 1475 1474 1472 1471 1470 1469 1469 1469 1468 1468
1539 1539 1538 1538 1538 1537 1537 1537 1536 1536 1536 1535 1535 1534 1534 1533 1532 1532 1531 1531 1531 1531 1530 1529 1529 1528 1528 1527 1527 1526 1526 1525 1524 1523 1522 1522 1521 1520 1519 1518 1517 1516 1516 1515 1514 1512 1511 1509 1508 1506 1505 1504 1502 1501 1499 1498 1496 1494 1492 1490 1489 1487 1486 1484 1483 1482 1480 1479 1477 1476 1475 1474 1473 1472 1471 1470 1469 1468 1467 1466 1465 1464 1463 1462 1462
1538 1537 1537 1537 1536 1536 1536 1535 1535 1534 1534 1533 1533 1532 1531 1531 1530 1530 1529 1529 1529 1528 1528 1527 1526 1525 1525 1524 1524 1523 1523 1522 1522 1521 1520 1519 1518 1517 1516 1515 1514 1513 1512 1511 1510 1509 1508 1506 1505 1504 1502 1501 1500 1499 1497 1495 1494 1492 1490 1488 1486 1485 1483 1481 1480 1478 1477 1475 1473 1472 1471 1470 1468 1467 1467 1466 1464 1463 1461 1461 1460 1459 1458 1457 1456
1537 1536 1536 1535 1534 1534 1534 1533 1533 1533 1532 1531 1531 1530 1529 1529 1528 1528 1527 1527 1526 1525 1525 1524 1523 1523 1522 1522 1521 1521 1520 1519 1519 1518 1517 1516 1515 1514 1513 1512 1511 1510 1509 1508 1507 1506 1504 1503 1502 1500 1499 1498 1497 1496 1495 1493 1491 1490 1488 1486 1484 1482 1481 1479 1477 1476 1474 1472 1470 1468 1467 1466 1464 1463 1462 1461 1460 1459 1457 1456 1455 1453 1452 1452 1451
1536 1535 1534 1534 1533 1533 1532 1532 1532 1531 1530 1530 1529 1528 1528 1527 1526 1526 1525 1524 1523 1523 1523 1522 1521 1520 1520 1519 1519 1518 1517 1516 1515 1515 1514 1513 1512 1511 1510 1509 1508 1507 1506 1505 1503 1502 1501 1500 1498 1497 1495 1494 1494 1493 1492 1490 1489 1487 1486 1484 1482 1480 1478 1477 1475 1473 1472 1470 1468 1466 1464 1462 1461 1460 1459 1457 1456 1455 1453 1452 1451 1449 1448 1446 1445
1535 1534 1533 1533 1532 1531 1531 1531 1530 1530 1529 1529 1528 1527 1527 1526 1525 1524 1523 1522 1521 1521 1520 1519 1519 1518 1517 1517 1516 1515 1514 1513 1512 1511 1510 1510 1509 1508 1507 1506 1504 1503 1502 1501 1500 1499 1498 1496 1495 1494 1492 1491 1490 1488 1487 1486 1485 1484 1483 1481 1479 1478 1476 1474 1472 1471 1469 1467 1465 1463 1461 1459 1457 1456 1455 1454 1452 1451 1449 1448 1446 1445 1443 1442 1440
1534 1533 1533 1532 1531 1531 1530 1530 1529 1529 1528 1528 1527 1526 1525 1524 1523 1522 1521 1520 1519 1519 1518 1517 1516 1515 1514 1514 1513 1512 1511 1510 1509 1508 1507 1506 1505 1505 1504 1502 1501 1500 1499 1498 1496 1495 1494 1493 1491 1490 1489 1488 1486 1485 1483 1482 1481 1480 1479 1478 1476 1475 1473 1471 1469 1468 1466 1464 1462 1460 1458 1456 1455 1453 1451 1450 1448 1447 1445 1443 1442 1440 1439 1437 1436
1533 1533 1532 1531 1531 1530 1529 1529 1528 1528 1527 1526 1525 1524 1523 1523 1521 1520 1519 1518 1517 1517 1516 1515 1514 1513 1512 1511 1510 1509 1509 1507 1506 1505 1504 1503 1502 1501 1500 1499 1498 1497 1495 1494 1493 1491 1490 1489 1488 1487 1486 1484 1483 1482 1480 1479 1477 1476 1474 1473 1472 1471 1469 1468 1466 1464 1462 1460 1458 1457 1455 1453 1451 1450 1448 1446 1444 1443 1441 1439 1437 1436 1435 1433 1431
1532 1532 1531 1531 1530 1529 1529 1528 1527 1526 1525 1524 1524 1523 1522 1521 1520 1518 1518 1516 1515 1514 1513 1512 1511 1510 1510 1508 1508 1507 1506 1505 1504 1502 1501 1500 1499 1498 1497 1496 1494 1493 1492 1490 1489 1487 1487 1485 1484 1483 1482 1481 1479 1478 1477 1475 1473 1472 1470 1469 1468 1466 1465 1463 1462 1461 1459 1456 1454 1453 1451 1449 1447 1446 1444 1443 1441 1439 1437 1435 1433 1432 1431 1429 1428
1532 1531 1530 1530 1529 1528 1528 1527 1526 1525 1524 1523 1522 1521 1520 1519 1517 1516 1515 1514 1513 1512 1511 1510 1509 1508 1507 1506 1506 1505 1503 1502 1501 1500 1498 1497 1496 1495 1494 1492 1490 1489 1487 1486 1484 1484 1483 1482 1480 1479 1478 1477 1476 1474 1473 1471 1470 1468 1467 1465 1464 1462 1461 1459 1458 1456 1455 1453 1451 1449 1447 1445 1444 1442 1440 1439 1437 1435 1433 1431 1430 1428 1427 1425 1423